Time,TemperatureF,DewpointF,PressureIn,WindDirection,WindDirectionDegrees,WindSpeedMPH,WindSpeedGustMPH,Humidity,HourlyPrecipIn,Conditions,Clouds,dailyrainin,SoftwareType,DateUTC
2013-09-19 00:01:00,54.1,28.5,17.72,East,99,0.0,0.0,37,0.00,,---,0.00,VWS V13.01,2013-09-19 04:01:00,
2013-09-19 00:02:00,54.1,28.5,17.72,East,99,0.0,0.0,37,0.00,,---,0.00,VWS V13.01,2013-09-19 04:02:00,
2013-09-19 00:07:00,54.1,28.5,17.72,East,99,0.0,0.0,37,0.00,,---,0.00,VWS V13.01,2013-09-19 04:07:00,
2013-09-19 00:08:00,54.1,28.5,17.72,East,99,0.0,0.0,37,0.00,,---,0.00,VWS V13.01,2013-09-19 04:08:00,
2013-09-19 00:13:00,54.1,28.5,17.72,East,99,0.0,0.0,37,0.00,,---,0.00,VWS V13.01,2013-09-19 04:13:00,
2013-09-19 00:18:00,54.0,28.3,17.72,East,99,0.0,0.0,37,0.00,,---,0.00,VWS V13.01,2013-09-19 04:18:00,
2013-09-19 00:23:00,54.1,28.5,17.72,East,99,0.0,0.0,37,0.00,,---,0.00,VWS V13.01,2013-09-19 04:23:00,
2013-09-19 00:28:00,54.1,28.5,17.72,East,99,0.0,0.0,37,0.00,,---,0.00,VWS V13.01,2013-09-19 04:28:00,
2013-09-19 00:33:00,54.5,28.8,17.72,East,99,0.0,0.0,37,0.00,,---,0.00,VWS V13.01,2013-09-19 04:33:00,
2013-09-19 00:38:00,54.9,29.1,17.72,East,99,0.0,0.0,37,0.00,,---,0.00,VWS V13.01,2013-09-19 04:38:00,
2013-09-19 00:43:00,54.9,29.1,17.72,East,99,0.0,0.0,37,0.00,,---,0.00,VWS V13.01,2013-09-19 04:43:00,
2013-09-19 00:48:00,55.0,29.3,17.72,East,99,0.0,0.0,37,0.00,,---,0.00,VWS V13.01,2013-09-19 04:48:00,
2013-09-19 00:53:00,55.0,29.3,17.72,East,99,0.0,0.0,37,0.00,,---,0.00,VWS V13.01,2013-09-19 04:53:00,
2013-09-19 00:58:00,55.0,29.3,17.72,East,99,0.0,0.0,37,0.00,,---,0.00,VWS V13.01,2013-09-19 04:58:00,
2013-09-19 01:03:00,55.0,29.3,17.72,East,99,0.0,0.0,37,0.00,,---,0.00,VWS V13.01,2013-09-19 05:03:00,
2013-09-19 01:08:00,55.0,29.3,17.72,East,99,0.0,0.0,37,0.00,,---,0.00,VWS V13.01,2013-09-19 05:08:00,
2013-09-19 01:13:00,55.0,29.3,17.72,East,99,0.0,0.0,37,0.00,,---,0.00,VWS V13.01,2013-09-19 05:13:00,
2013-09-19 01:18:00,55.0,29.3,17.72,East,99,0.0,0.0,37,0.00,,---,0.00,VWS V13.01,2013-09-19 05:18:00,
2013-09-19 01:23:00,55.2,29.4,17.72,East,99,0.0,0.0,37,0.00,,---,0.00,VWS V13.01,2013-09-19 05:23:00,
2013-09-19 01:28:00,55.2,29.4,17.72,East,99,0.0,0.0,37,0.00,,---,0.00,VWS V13.01,2013-09-19 05:28:00,
2013-09-19 01:33:00,55.4,28.9,17.72,East,99,0.0,0.0,36,0.00,,---,0.00,VWS V13.01,2013-09-19 05:33:00,
2013-09-19 01:38:00,55.6,29.1,17.72,East,99,0.0,0.0,36,0.00,,---,0.00,VWS V13.01,2013-09-19 05:38:00,
2013-09-19 01:43:00,55.8,29.2,17.72,East,99,0.0,0.0,36,0.00,,---,0.00,VWS V13.01,2013-09-19 05:43:00,
2013-09-19 01:48:00,55.9,29.4,17.72,East,99,0.0,0.0,36,0.00,,---,0.00,VWS V13.01,2013-09-19 05:48:00,
2013-09-19 01:53:00,56.5,29.9,17.72,WSW,244,0.0,0.0,36,0.00,,---,0.00,VWS V13.01,2013-09-19 05:53:00,
2013-09-19 01:58:00,57.0,29.7,17.72,WSW,257,0.0,0.0,35,0.00,,---,0.00,VWS V13.01,2013-09-19 05:58:00,
2013-09-19 02:03:00,57.4,30.0,17.72,North,8,0.0,0.0,35,0.00,,---,0.00,VWS V13.01,2013-09-19 06:03:00,
2013-09-19 02:08:00,57.6,29.4,17.72,North,8,0.0,0.0,34,0.00,,---,0.00,VWS V13.01,2013-09-19 06:08:00,
2013-09-19 02:13:00,57.7,29.6,17.72,West,261,0.0,0.0,34,0.00,,---,0.00,VWS V13.01,2013-09-19 06:13:00,
2013-09-19 02:18:00,57.7,28.9,17.72,North,350,0.0,0.0,33,0.00,,---,0.00,VWS V13.01,2013-09-19 06:18:00,
2013-09-19 02:23:00,57.7,28.1,17.72,North,350,0.0,0.0,32,0.00,,---,0.00,VWS V13.01,2013-09-19 06:23:00,
2013-09-19 02:28:00,57.7,27.3,17.72,North,350,0.0,0.0,31,0.00,,---,0.00,VWS V13.01,2013-09-19 06:28:00,
2013-09-19 02:33:00,57.6,26.4,17.72,North,350,0.0,0.0,30,0.00,,---,0.00,VWS V13.01,2013-09-19 06:33:00,
2013-09-19 02:38:00,57.6,25.6,17.72,NNW,348,0.0,0.0,29,0.00,,---,0.00,VWS V13.01,2013-09-19 06:38:00,
2013-09-19 02:43:00,57.7,25.7,17.72,NNW,348,0.0,0.0,29,0.00,,---,0.00,VWS V13.01,2013-09-19 06:43:00,
2013-09-19 02:48:00,57.6,24.7,17.72,NNW,348,0.0,0.0,28,0.00,,---,0.00,VWS V13.01,2013-09-19 06:48:00,
2013-09-19 02:53:00,57.6,24.7,17.72,NNW,348,0.0,0.0,28,0.00,,---,0.00,VWS V13.01,2013-09-19 06:53:00,
2013-09-19 02:58:00,57.4,24.6,17.72,NNW,348,0.0,0.0,28,0.00,,---,0.00,VWS V13.01,2013-09-19 06:58:00,
2013-09-19 03:03:00,57.4,23.7,17.72,NNW,348,0.0,0.0,27,0.00,,---,0.00,VWS V13.01,2013-09-19 07:03:00,
2013-09-19 03:08:00,57.4,23.7,17.72,NNW,348,0.0,0.0,27,0.00,,---,0.00,VWS V13.01,2013-09-19 07:08:00,
2013-09-19 03:13:00,57.0,23.4,17.72,NNW,348,0.0,0.0,27,0.00,,---,0.00,VWS V13.01,2013-09-19 07:13:00,
2013-09-19 03:18:00,56.8,23.2,17.72,NNW,348,0.0,0.0,27,0.00,,---,0.00,VWS V13.01,2013-09-19 07:18:00,
2013-09-19 03:23:00,56.8,23.2,17.72,NNW,348,0.0,0.0,27,0.00,,---,0.00,VWS V13.01,2013-09-19 07:23:00,
2013-09-19 03:28:00,56.8,23.2,17.72,SW,225,0.0,0.0,27,0.00,,---,0.00,VWS V13.01,2013-09-19 07:28:00,
2013-09-19 03:33:00,57.0,23.4,17.72,NW,307,0.0,0.0,27,0.00,,---,0.00,VWS V13.01,2013-09-19 07:33:00,
2013-09-19 03:38:00,57.4,22.8,17.72,WNW,290,0.0,0.0,26,0.00,,---,0.00,VWS V13.01,2013-09-19 07:38:00,
2013-09-19 03:43:00,57.6,23.0,17.72,WNW,290,0.0,0.0,26,0.00,,---,0.00,VWS V13.01,2013-09-19 07:43:00,
2013-09-19 03:48:00,57.7,23.1,17.72,WNW,290,0.0,0.0,26,0.00,,---,0.00,VWS V13.01,2013-09-19 07:48:00,
2013-09-19 03:53:00,57.9,23.3,17.72,SW,216,0.0,0.0,26,0.00,,---,0.00,VWS V13.01,2013-09-19 07:53:00,
2013-09-19 03:58:00,57.9,23.3,17.72,North,8,0.0,0.0,26,0.00,,---,0.00,VWS V13.01,2013-09-19 07:58:00,
2013-09-19 04:03:00,58.1,22.5,17.72,WSW,248,0.0,0.0,25,0.00,,---,0.00,VWS V13.01,2013-09-19 08:03:00,
2013-09-19 04:08:00,58.1,22.5,17.72,West,271,0.0,0.0,25,0.00,,---,0.00,VWS V13.01,2013-09-19 08:08:00,
2013-09-19 04:13:00,57.9,22.3,17.72,West,271,0.0,0.0,25,0.00,,---,0.00,VWS V13.01,2013-09-19 08:13:00,
2013-09-19 04:18:00,57.9,22.3,17.72,WSW,256,0.0,0.0,25,0.00,,---,0.00,VWS V13.01,2013-09-19 08:18:00,
2013-09-19 04:23:00,57.7,22.2,17.72,WNW,302,0.0,0.0,25,0.00,,---,0.00,VWS V13.01,2013-09-19 08:23:00,
2013-09-19 04:28:00,57.6,22.0,17.72,WNW,285,0.0,0.0,25,0.00,,---,0.00,VWS V13.01,2013-09-19 08:28:00,
2013-09-19 04:33:00,57.6,22.0,17.72,WNW,285,0.0,0.0,25,0.00,,---,0.00,VWS V13.01,2013-09-19 08:33:00,
2013-09-19 04:38:00,57.2,21.7,17.72,WNW,285,0.0,0.0,25,0.00,,---,0.00,VWS V13.01,2013-09-19 08:38:00,
2013-09-19 04:43:00,57.0,21.6,17.72,WNW,285,0.0,0.0,25,0.00,,---,0.00,VWS V13.01,2013-09-19 08:43:00,
2013-09-19 04:48:00,56.7,21.3,17.72,WNW,285,0.0,0.0,25,0.00,,---,0.00,VWS V13.01,2013-09-19 08:48:00,
2013-09-19 04:53:00,56.3,21.0,17.72,WNW,285,0.0,0.0,25,0.00,,---,0.00,VWS V13.01,2013-09-19 08:53:00,
2013-09-19 04:58:00,55.8,20.5,17.72,WNW,285,0.0,0.0,25,0.00,,---,0.00,VWS V13.01,2013-09-19 08:58:00,
2013-09-19 05:03:00,55.4,20.2,17.72,WNW,285,0.0,0.0,25,0.00,,---,0.00,VWS V13.01,2013-09-19 09:03:00,
2013-09-19 05:08:00,55.2,21.0,17.72,WNW,285,0.0,0.0,26,0.00,,---,0.00,VWS V13.01,2013-09-19 09:08:00,
2013-09-19 05:13:00,55.0,20.8,17.72,WNW,285,0.0,0.0,26,0.00,,---,0.00,VWS V13.01,2013-09-19 09:13:00,
2013-09-19 05:18:00,55.0,20.8,17.72,WNW,285,0.0,0.0,26,0.00,,---,0.00,VWS V13.01,2013-09-19 09:18:00,
2013-09-19 05:23:00,54.9,20.6,17.72,WNW,285,0.0,0.0,26,0.00,,---,0.00,VWS V13.01,2013-09-19 09:23:00,
2013-09-19 05:28:00,55.0,20.8,17.72,WNW,285,0.0,0.0,26,0.00,,---,0.00,VWS V13.01,2013-09-19 09:28:00,
2013-09-19 05:33:00,55.0,20.8,17.72,WNW,285,0.0,0.0,26,0.00,,---,0.00,VWS V13.01,2013-09-19 09:33:00,
2013-09-19 05:38:00,55.0,20.8,17.72,WNW,285,0.0,0.0,26,0.00,,---,0.00,VWS V13.01,2013-09-19 09:38:00,
2013-09-19 05:43:00,54.9,20.6,17.72,WNW,285,0.0,0.0,26,0.00,,---,0.00,VWS V13.01,2013-09-19 09:43:00,
2013-09-19 05:48:00,54.5,20.3,17.72,WNW,285,0.0,0.0,26,0.00,,---,0.00,VWS V13.01,2013-09-19 09:48:00,
2013-09-19 05:53:00,54.5,20.3,17.72,WNW,285,0.0,0.0,26,0.00,,---,0.00,VWS V13.01,2013-09-19 09:53:00,
2013-09-19 05:58:00,54.5,20.3,17.72,WNW,285,0.0,0.0,26,0.00,,---,0.00,VWS V13.01,2013-09-19 09:58:00,
2013-09-19 06:03:00,54.5,20.3,17.72,WNW,285,0.0,0.0,26,0.00,,---,0.00,VWS V13.01,2013-09-19 10:03:00,
2013-09-19 06:08:00,54.5,20.3,17.72,WNW,285,0.0,0.0,26,0.00,,---,0.00,VWS V13.01,2013-09-19 10:08:00,
2013-09-19 06:13:00,54.5,20.3,17.72,WNW,285,0.0,0.0,26,0.00,,---,0.00,VWS V13.01,2013-09-19 10:13:00,
2013-09-19 06:18:00,54.5,20.3,17.72,WNW,285,0.0,0.0,26,0.00,,---,0.00,VWS V13.01,2013-09-19 10:18:00,
2013-09-19 06:23:00,54.3,20.2,17.72,WNW,285,0.0,0.0,26,0.00,,---,0.00,VWS V13.01,2013-09-19 10:23:00,
2013-09-19 06:28:00,54.1,20.0,17.72,WNW,285,0.0,0.0,26,0.00,,---,0.00,VWS V13.01,2013-09-19 10:28:00,
2013-09-19 06:33:00,54.1,20.0,17.72,WNW,285,0.0,0.0,26,0.00,,---,0.00,VWS V13.01,2013-09-19 10:33:00,
2013-09-19 06:38:00,54.1,20.0,17.72,WNW,285,0.0,0.0,26,0.00,,---,0.00,VWS V13.01,2013-09-19 10:38:00,
2013-09-19 06:43:00,54.0,19.9,17.72,WNW,285,0.0,0.0,26,0.00,,---,0.00,VWS V13.01,2013-09-19 10:43:00,
2013-09-19 06:48:00,53.8,19.7,17.72,WNW,285,0.0,0.0,26,0.00,,---,0.00,VWS V13.01,2013-09-19 10:48:00,
2013-09-19 06:53:00,53.8,19.7,17.72,WNW,285,0.0,0.0,26,0.00,,---,0.00,VWS V13.01,2013-09-19 10:53:00,
2013-09-19 06:58:00,53.8,19.7,17.72,WNW,285,0.0,0.0,26,0.00,,---,0.00,VWS V13.01,2013-09-19 10:58:00,
2013-09-19 07:03:00,53.8,20.6,17.72,WNW,285,0.0,0.0,27,0.00,,---,0.00,VWS V13.01,2013-09-19 11:03:00,
2013-09-19 07:08:00,53.8,20.6,17.72,WNW,285,0.0,0.0,27,0.00,,---,0.00,VWS V13.01,2013-09-19 11:08:00,
2013-09-19 07:13:00,53.6,20.5,17.72,WNW,285,0.0,0.0,27,0.00,,---,0.00,VWS V13.01,2013-09-19 11:13:00,
2013-09-19 07:18:00,53.6,20.5,17.72,WNW,285,0.0,0.0,27,0.00,,---,0.00,VWS V13.01,2013-09-19 11:18:00,
2013-09-19 07:23:00,53.4,20.3,17.72,WNW,285,0.0,0.0,27,0.00,,---,0.00,VWS V13.01,2013-09-19 11:23:00,
2013-09-19 07:28:00,53.4,20.3,17.72,WNW,285,0.0,0.0,27,0.00,,---,0.00,VWS V13.01,2013-09-19 11:28:00,
2013-09-19 07:33:00,53.6,20.5,17.72,WNW,285,0.0,0.0,27,0.00,,---,0.00,VWS V13.01,2013-09-19 11:33:00,
2013-09-19 07:38:00,53.8,20.6,17.72,WNW,285,0.0,0.0,27,0.00,,---,0.00,VWS V13.01,2013-09-19 11:38:00,
2013-09-19 07:43:00,54.0,20.8,17.72,WNW,285,0.0,0.0,27,0.00,,---,0.00,VWS V13.01,2013-09-19 11:43:00,
2013-09-19 07:48:00,54.1,20.9,17.72,WNW,285,0.0,0.0,27,0.00,,---,0.00,VWS V13.01,2013-09-19 11:48:00,
2013-09-19 07:53:00,54.3,21.9,17.72,WNW,285,0.0,0.0,28,0.00,,---,0.00,VWS V13.01,2013-09-19 11:53:00,
2013-09-19 07:58:00,54.5,22.1,17.72,WNW,285,0.0,0.0,28,0.00,,---,0.00,VWS V13.01,2013-09-19 11:58:00,
2013-09-19 08:03:00,54.7,22.2,17.72,WNW,285,0.0,0.0,28,0.00,,---,0.00,VWS V13.01,2013-09-19 12:03:00,
2013-09-19 08:08:00,55.0,22.5,17.72,WNW,285,0.0,0.0,28,0.00,,---,0.00,VWS V13.01,2013-09-19 12:08:00,
2013-09-19 08:13:00,55.4,22.0,17.72,WNW,285,0.0,0.0,27,0.00,,---,0.00,VWS V13.01,2013-09-19 12:13:00,
2013-09-19 08:18:00,55.9,23.3,17.72,WNW,285,0.0,0.0,28,0.00,,---,0.00,VWS V13.01,2013-09-19 12:18:00,
2013-09-19 08:23:00,56.3,22.8,17.72,WNW,285,0.0,0.0,27,0.00,,---,0.00,VWS V13.01,2013-09-19 12:23:00,
2013-09-19 08:28:00,56.7,23.1,17.72,WNW,285,0.0,2.2,27,0.00,,---,0.00,VWS V13.01,2013-09-19 12:28:00,
2013-09-19 08:33:00,57.2,23.5,17.72,West,274,2.7,2.7,27,0.00,,---,0.00,VWS V13.01,2013-09-19 12:33:00,
2013-09-19 08:38:00,57.7,24.0,17.72,West,273,0.0,0.0,27,0.00,,---,0.00,VWS V13.01,2013-09-19 12:38:00,
2013-09-19 08:43:00,58.3,24.5,17.72,NNW,330,0.0,0.0,27,0.00,,---,0.00,VWS V13.01,2013-09-19 12:43:00,
2013-09-19 08:48:00,58.6,23.9,17.72,NNW,330,0.0,0.0,26,0.00,,---,0.00,VWS V13.01,2013-09-19 12:48:00,
2013-09-19 08:53:00,58.8,24.0,17.72,NW,308,0.0,2.7,26,0.00,,---,0.00,VWS V13.01,2013-09-19 12:53:00,
2013-09-19 08:58:00,59.4,23.6,17.72,North,353,0.0,0.0,25,0.00,,---,0.00,VWS V13.01,2013-09-19 12:58:00,
2013-09-19 09:03:00,59.5,23.7,17.72,North,353,0.0,0.0,25,0.00,,---,0.00,VWS V13.01,2013-09-19 13:03:00,
2013-09-19 09:08:00,59.7,23.9,17.72,North,353,0.0,0.0,25,0.00,,---,0.00,VWS V13.01,2013-09-19 13:08:00,
2013-09-19 09:13:00,59.9,24.0,17.72,North,353,0.0,0.0,25,0.00,,---,0.00,VWS V13.01,2013-09-19 13:13:00,
2013-09-19 09:18:00,60.3,24.3,17.72,North,353,0.0,0.0,25,0.00,,---,0.00,VWS V13.01,2013-09-19 13:18:00,
2013-09-19 09:23:00,60.4,24.5,17.72,North,353,0.0,0.0,25,0.00,,---,0.00,VWS V13.01,2013-09-19 13:23:00,
2013-09-19 09:28:00,60.6,24.6,17.72,WSW,246,2.7,2.7,25,0.00,,---,0.00,VWS V13.01,2013-09-19 13:28:00,
2013-09-19 09:33:00,61.3,24.3,17.72,West,262,0.0,0.0,24,0.00,,---,0.00,VWS V13.01,2013-09-19 13:33:00,
2013-09-19 09:38:00,61.7,24.6,17.72,West,262,0.0,0.0,24,0.00,,---,0.00,VWS V13.01,2013-09-19 13:38:00,
2013-09-19 09:43:00,61.9,24.7,17.72,ESE,120,0.0,0.0,24,0.00,,---,0.00,VWS V13.01,2013-09-19 13:43:00,
2013-09-19 09:48:00,62.1,24.9,17.72,ENE,66,0.0,0.0,24,0.00,,---,0.00,VWS V13.01,2013-09-19 13:48:00,
2013-09-19 09:53:00,62.4,25.2,17.72,SE,141,0.0,0.0,24,0.00,,---,0.00,VWS V13.01,2013-09-19 13:53:00,
2013-09-19 09:58:00,62.8,25.5,17.72,SE,141,0.0,0.0,24,0.00,,---,0.00,VWS V13.01,2013-09-19 13:58:00,
2013-09-19 10:03:00,63.0,25.6,17.72,West,273,0.0,3.1,24,0.00,,---,0.00,VWS V13.01,2013-09-19 14:03:00,
2013-09-19 10:08:00,63.7,25.2,17.72,North,350,0.0,0.0,23,0.00,,---,0.00,VWS V13.01,2013-09-19 14:08:00,
2013-09-19 10:13:00,64.2,25.7,17.72,NW,305,0.0,0.0,23,0.00,,---,0.00,VWS V13.01,2013-09-19 14:13:00,
2013-09-19 10:18:00,64.8,26.1,17.72,NW,305,0.0,0.0,23,0.00,,---,0.00,VWS V13.01,2013-09-19 14:18:00,
2013-09-19 10:23:00,65.1,23.1,17.72,NW,306,0.0,0.0,20,0.00,,---,0.00,VWS V13.01,2013-09-19 14:23:00,
2013-09-19 10:28:00,65.5,23.4,17.72,NE,44,0.0,2.2,20,0.00,,---,0.00,VWS V13.01,2013-09-19 14:28:00,
2013-09-19 10:33:00,65.8,23.7,17.72,NNW,337,0.0,0.0,20,0.00,,---,0.00,VWS V13.01,2013-09-19 14:33:00,
2013-09-19 10:38:00,66.2,24.0,17.72,West,265,0.0,0.0,20,0.00,,---,0.00,VWS V13.01,2013-09-19 14:38:00,
2013-09-19 10:43:00,66.4,24.1,17.72,West,267,0.0,0.0,20,0.00,,---,0.00,VWS V13.01,2013-09-19 14:43:00,
2013-09-19 10:48:00,66.6,24.3,17.72,NW,309,2.7,2.7,20,0.00,,---,0.00,VWS V13.01,2013-09-19 14:48:00,
2013-09-19 10:53:00,66.9,24.6,17.72,WNW,285,0.0,0.0,20,0.00,,---,0.00,VWS V13.01,2013-09-19 14:53:00,
2013-09-19 10:58:00,67.3,24.9,17.72,WSW,246,0.0,0.0,20,0.00,,---,0.00,VWS V13.01,2013-09-19 14:58:00,
2013-09-19 11:03:00,67.5,21.2,17.72,West,270,0.0,0.0,17,0.00,,---,0.00,VWS V13.01,2013-09-19 15:03:00,
2013-09-19 11:08:00,67.8,21.5,17.72,West,270,0.0,0.0,17,0.00,,---,0.00,VWS V13.01,2013-09-19 15:08:00,
2013-09-19 11:13:00,68.2,21.7,17.72,WSW,254,0.0,0.0,17,0.00,,---,0.00,VWS V13.01,2013-09-19 15:13:00,
2013-09-19 11:18:00,68.5,22.0,17.72,West,260,0.0,0.0,17,0.00,,---,0.00,VWS V13.01,2013-09-19 15:18:00,
2013-09-19 11:23:00,68.7,22.2,17.72,West,270,0.0,2.7,17,0.00,,---,0.00,VWS V13.01,2013-09-19 15:23:00,
2013-09-19 11:28:00,68.9,22.3,17.72,West,271,2.7,2.7,17,0.00,,---,0.00,VWS V13.01,2013-09-19 15:28:00,
2013-09-19 11:33:00,69.1,22.5,17.72,NW,315,0.0,0.0,17,0.00,,---,0.00,VWS V13.01,2013-09-19 15:33:00,
2013-09-19 11:38:00,69.3,22.6,17.72,NW,309,2.2,3.6,17,0.00,,---,0.00,VWS V13.01,2013-09-19 15:38:00,
2013-09-19 11:43:00,69.6,22.9,17.72,WSW,254,0.0,0.0,17,0.00,,---,0.00,VWS V13.01,2013-09-19 15:43:00,
2013-09-19 11:48:00,69.8,18.5,17.72,WSW,254,0.0,0.0,14,0.00,,---,0.00,VWS V13.01,2013-09-19 15:48:00,
2013-09-19 11:53:00,70.0,18.6,17.72,WSW,254,0.0,0.0,14,0.00,,---,0.00,VWS V13.01,2013-09-19 15:53:00,
2013-09-19 11:58:00,70.2,18.8,17.72,WSW,254,0.0,0.0,14,0.00,,---,0.00,VWS V13.01,2013-09-19 15:58:00,
2013-09-19 12:03:00,70.3,18.9,17.72,West,263,0.0,2.2,14,0.00,,---,0.00,VWS V13.01,2013-09-19 16:03:00,
2013-09-19 12:08:00,70.7,19.2,17.72,WSW,258,0.0,2.7,14,0.00,,---,0.00,VWS V13.01,2013-09-19 16:08:00,
2013-09-19 12:13:00,71.1,19.5,17.72,WNW,288,0.0,0.0,14,0.00,,---,0.00,VWS V13.01,2013-09-19 16:13:00,
2013-09-19 12:18:00,71.1,19.5,17.72,WNW,288,0.0,0.0,14,0.00,,---,0.00,VWS V13.01,2013-09-19 16:18:00,
2013-09-19 12:23:00,71.2,19.6,17.72,WNW,288,0.0,0.0,14,0.00,,---,0.00,VWS V13.01,2013-09-19 16:23:00,
2013-09-19 12:28:00,71.4,19.8,17.72,SSE,155,0.0,0.0,14,0.00,,---,0.00,VWS V13.01,2013-09-19 16:28:00,
2013-09-19 12:33:00,71.8,20.1,17.72,NE,56,0.0,0.0,14,0.00,,---,0.00,VWS V13.01,2013-09-19 16:33:00,
2013-09-19 12:38:00,72.1,20.4,17.72,NE,44,0.0,0.0,14,0.00,,---,0.00,VWS V13.01,2013-09-19 16:38:00,
2013-09-19 12:43:00,72.3,20.5,17.72,SE,142,0.0,0.0,14,0.00,,---,0.00,VWS V13.01,2013-09-19 16:43:00,
2013-09-19 12:48:00,72.3,20.5,17.72,NE,44,0.0,2.2,14,0.00,,---,0.00,VWS V13.01,2013-09-19 16:48:00,
2013-09-19 12:53:00,72.5,20.6,17.72,SSE,154,0.0,2.2,14,0.00,,---,0.00,VWS V13.01,2013-09-19 16:53:00,
2013-09-19 12:58:00,72.5,15.0,17.72,SSE,167,0.0,0.0,11,0.00,,---,0.00,VWS V13.01,2013-09-19 16:58:00,
2013-09-19 13:03:00,72.5,15.0,17.72,SE,138,0.0,0.0,11,0.00,,---,0.00,VWS V13.01,2013-09-19 17:03:00,
2013-09-19 13:08:00,72.7,15.2,17.72,SE,142,0.0,0.0,11,0.00,,---,0.00,VWS V13.01,2013-09-19 17:08:00,
2013-09-19 13:13:00,73.2,15.6,17.72,SE,144,0.0,2.2,11,0.00,,---,0.00,VWS V13.01,2013-09-19 17:13:00,
2013-09-19 13:18:00,73.6,15.9,17.72,SE,139,0.0,0.0,11,0.00,,---,0.00,VWS V13.01,2013-09-19 17:18:00,
2013-09-19 13:23:00,73.9,16.1,17.72,SSE,167,0.0,0.0,11,0.00,,---,0.00,VWS V13.01,2013-09-19 17:23:00,
2013-09-19 13:28:00,74.3,16.4,17.72,SE,133,0.0,0.0,11,0.00,,---,0.00,VWS V13.01,2013-09-19 17:28:00,
2013-09-19 13:33:00,75.0,17.0,17.72,SE,139,0.0,0.0,11,0.00,,---,0.00,VWS V13.01,2013-09-19 17:33:00,
2013-09-19 13:38:00,75.7,15.4,17.72,SE,139,0.0,0.0,10,0.00,,---,0.00,VWS V13.01,2013-09-19 17:38:00,
2013-09-19 13:43:00,77.2,16.5,17.72,WNW,298,0.0,0.0,10,0.00,,---,0.00,VWS V13.01,2013-09-19 17:43:00,
2013-09-19 13:48:00,78.4,17.4,17.72,West,268,0.0,0.0,10,0.00,,---,0.00,VWS V13.01,2013-09-19 17:48:00,
2013-09-19 13:53:00,78.6,17.5,17.72,WSW,249,2.2,2.7,10,0.00,,---,0.00,VWS V13.01,2013-09-19 17:53:00,
2013-09-19 13:58:00,79.2,18.0,17.72,SSE,157,2.2,2.2,10,0.00,,---,0.00,VWS V13.01,2013-09-19 17:58:00,
2013-09-19 14:03:00,78.8,17.7,17.72,ENE,72,0.0,0.0,10,0.00,,---,0.00,VWS V13.01,2013-09-19 18:03:00,
2013-09-19 14:08:00,79.2,18.0,17.72,North,357,3.1,3.1,10,0.00,,---,0.00,VWS V13.01,2013-09-19 18:08:00,
2013-09-19 14:13:00,79.0,17.8,17.72,NNE,15,0.0,3.1,10,0.00,,---,0.00,VWS V13.01,2013-09-19 18:13:00,
2013-09-19 14:18:00,79.3,18.1,17.72,NNE,12,0.0,2.7,10,0.00,,---,0.00,VWS V13.01,2013-09-19 18:18:00,
2013-09-19 14:23:00,79.9,18.5,17.72,NNE,12,0.0,0.0,10,0.00,,---,0.00,VWS V13.01,2013-09-19 18:23:00,
2013-09-19 14:28:00,79.5,18.2,17.72,SE,133,0.0,0.0,10,0.00,,---,0.00,VWS V13.01,2013-09-19 18:28:00,
2013-09-19 14:33:00,79.3,18.1,17.72,SE,141,0.0,0.0,10,0.00,,---,0.00,VWS V13.01,2013-09-19 18:33:00,
2013-09-19 14:38:00,79.3,18.1,17.72,WSW,252,0.0,0.0,10,0.00,,---,0.00,VWS V13.01,2013-09-19 18:38:00,
2013-09-19 14:43:00,79.0,17.8,17.72,NE,55,0.0,0.0,10,0.00,,---,0.00,VWS V13.01,2013-09-19 18:43:00,
2013-09-19 14:48:00,78.8,17.7,17.72,NNE,16,2.7,2.7,10,0.00,,---,0.00,VWS V13.01,2013-09-19 18:48:00,
2013-09-19 14:53:00,78.8,17.7,17.72,East,84,0.0,0.0,10,0.00,,---,0.00,VWS V13.01,2013-09-19 18:53:00,
2013-09-19 14:58:00,79.2,18.0,17.72,East,82,0.0,0.0,10,0.00,,---,0.00,VWS V13.01,2013-09-19 18:58:00,
2013-09-19 15:03:00,79.0,17.8,17.72,ESE,108,0.0,4.0,10,0.00,,---,0.00,VWS V13.01,2013-09-19 19:03:00,
2013-09-19 15:08:00,78.3,17.3,17.72,NE,34,3.1,3.1,10,0.00,,---,0.00,VWS V13.01,2013-09-19 19:08:00,
2013-09-19 15:13:00,77.4,16.6,17.72,East,81,0.0,0.0,10,0.00,,---,0.00,VWS V13.01,2013-09-19 19:13:00,
2013-09-19 15:18:00,77.4,16.6,17.72,NNW,333,0.0,0.0,10,0.00,,---,0.00,VWS V13.01,2013-09-19 19:18:00,
2013-09-19 15:23:00,77.4,16.6,17.72,NE,46,3.1,3.1,10,0.00,,---,0.00,VWS V13.01,2013-09-19 19:23:00,
2013-09-19 15:28:00,76.6,16.0,17.72,NE,50,0.0,2.7,10,0.00,,---,0.00,VWS V13.01,2013-09-19 19:28:00,
2013-09-19 15:33:00,76.8,16.2,17.72,ENE,76,2.7,4.0,10,0.00,,---,0.00,VWS V13.01,2013-09-19 19:33:00,
2013-09-19 15:38:00,76.5,15.9,17.72,ESE,117,0.0,0.0,10,0.00,,---,0.00,VWS V13.01,2013-09-19 19:38:00,
2013-09-19 15:43:00,76.3,15.8,17.72,ENE,64,2.7,4.0,10,0.00,,---,0.00,VWS V13.01,2013-09-19 19:43:00,
2013-09-19 15:48:00,76.1,15.6,17.72,NNE,15,0.0,3.6,10,0.00,,---,0.00,VWS V13.01,2013-09-19 19:48:00,
2013-09-19 15:53:00,75.9,15.5,17.72,NNE,33,0.0,2.2,10,0.00,,---,0.00,VWS V13.01,2013-09-19 19:53:00,
2013-09-19 15:58:00,76.6,16.0,17.72,ENE,72,0.0,3.1,10,0.00,,---,0.00,VWS V13.01,2013-09-19 19:58:00,
2013-09-19 16:03:00,77.2,16.5,17.72,ENE,61,2.7,2.7,10,0.00,,---,0.00,VWS V13.01,2013-09-19 20:03:00,
2013-09-19 16:08:00,77.4,16.6,17.72,East,97,3.1,3.1,10,0.00,,---,0.00,VWS V13.01,2013-09-19 20:08:00,
2013-09-19 16:13:00,77.2,16.5,17.72,NE,37,0.0,2.7,10,0.00,,---,0.00,VWS V13.01,2013-09-19 20:13:00,
2013-09-19 16:18:00,77.2,16.5,17.72,NNE,15,0.0,0.0,10,0.00,,---,0.00,VWS V13.01,2013-09-19 20:18:00,
2013-09-19 16:24:00,77.5,16.7,17.72,ENE,62,2.7,2.7,10,0.00,,---,0.00,VWS V13.01,2013-09-19 20:24:00,
2013-09-19 16:29:00,77.9,17.0,17.72,ENE,63,0.0,0.0,10,0.00,,---,0.00,VWS V13.01,2013-09-19 20:29:00,
2013-09-19 16:34:00,77.9,17.0,17.72,ENE,59,5.4,5.4,10,0.00,,---,0.00,VWS V13.01,2013-09-19 20:34:00,
2013-09-19 16:39:00,78.4,17.4,17.72,East,100,0.0,0.0,10,0.00,,---,0.00,VWS V13.01,2013-09-19 20:39:00,
2013-09-19 16:44:00,78.4,17.4,17.72,East,81,0.0,0.0,10,0.00,,---,0.00,VWS V13.01,2013-09-19 20:44:00,
2013-09-19 16:49:00,78.6,17.5,17.72,NE,39,0.0,3.1,10,0.00,,---,0.00,VWS V13.01,2013-09-19 20:49:00,
2013-09-19 16:54:00,78.8,17.7,17.72,NE,47,2.2,3.6,10,0.00,,---,0.00,VWS V13.01,2013-09-19 20:54:00,
2013-09-19 16:59:00,79.2,18.0,17.72,NE,37,0.0,2.7,10,0.00,,---,0.00,VWS V13.01,2013-09-19 20:59:00,
2013-09-19 17:04:00,79.3,18.1,17.72,East,85,0.0,2.2,10,0.00,,---,0.00,VWS V13.01,2013-09-19 21:04:00,
2013-09-19 17:09:00,79.5,18.2,17.72,ENE,78,0.0,0.0,10,0.00,,---,0.00,VWS V13.01,2013-09-19 21:09:00,
2013-09-19 17:14:00,79.3,18.1,17.72,ENE,78,0.0,0.0,10,0.00,,---,0.00,VWS V13.01,2013-09-19 21:14:00,
2013-09-19 17:19:00,79.0,17.8,17.72,ENE,78,0.0,0.0,10,0.00,,---,0.00,VWS V13.01,2013-09-19 21:19:00,
2013-09-19 17:24:00,78.8,17.7,17.72,ENE,74,0.0,0.0,10,0.00,,---,0.00,VWS V13.01,2013-09-19 21:24:00,
2013-09-19 17:29:00,78.4,17.4,17.72,ENE,74,0.0,0.0,10,0.00,,---,0.00,VWS V13.01,2013-09-19 21:29:00,
2013-09-19 17:34:00,78.1,17.1,17.72,ENE,74,0.0,0.0,10,0.00,,---,0.00,VWS V13.01,2013-09-19 21:34:00,
2013-09-19 17:39:00,77.7,16.9,17.72,ENE,74,0.0,0.0,10,0.00,,---,0.00,VWS V13.01,2013-09-19 21:39:00,
2013-09-19 17:44:00,77.2,16.5,17.72,ENE,74,0.0,0.0,10,0.00,,---,0.00,VWS V13.01,2013-09-19 21:44:00,
2013-09-19 17:49:00,75.6,15.2,17.72,ENE,74,0.0,0.0,10,0.00,,---,0.00,VWS V13.01,2013-09-19 21:49:00,
2013-09-19 17:54:00,74.7,16.7,17.72,ENE,74,0.0,0.0,11,0.00,,---,0.00,VWS V13.01,2013-09-19 21:54:00,
2013-09-19 17:59:00,73.9,16.1,17.72,ENE,74,0.0,0.0,11,0.00,,---,0.00,VWS V13.01,2013-09-19 21:59:00,
2013-09-19 18:04:00,73.0,15.5,17.72,ENE,73,0.0,0.0,11,0.00,,---,0.00,VWS V13.01,2013-09-19 22:04:00,
2013-09-19 18:09:00,72.3,14.9,17.72,ENE,74,0.0,0.0,11,0.00,,---,0.00,VWS V13.01,2013-09-19 22:09:00,
2013-09-19 18:14:00,71.6,14.4,17.72,ENE,74,0.0,0.0,11,0.00,,---,0.00,VWS V13.01,2013-09-19 22:14:00,
2013-09-19 18:19:00,70.9,15.8,17.72,ENE,74,0.0,0.0,12,0.00,,---,0.00,VWS V13.01,2013-09-19 22:19:00,
2013-09-19 18:24:00,70.2,15.2,17.72,ENE,74,0.0,0.0,12,0.00,,---,0.00,VWS V13.01,2013-09-19 22:24:00,
2013-09-19 18:29:00,69.6,20.0,17.72,ENE,74,0.0,0.0,15,0.00,,---,0.00,VWS V13.01,2013-09-19 22:29:00,
2013-09-19 18:34:00,69.1,19.5,17.72,ENE,74,0.0,0.0,15,0.00,,---,0.00,VWS V13.01,2013-09-19 22:34:00,
2013-09-19 18:39:00,68.5,22.0,17.72,ENE,74,0.0,0.0,17,0.00,,---,0.00,VWS V13.01,2013-09-19 22:39:00,
2013-09-19 18:44:00,68.2,21.7,17.72,ENE,74,0.0,0.0,17,0.00,,---,0.00,VWS V13.01,2013-09-19 22:44:00,
2013-09-19 18:49:00,67.8,25.3,17.72,ENE,74,0.0,0.0,20,0.00,,---,0.00,VWS V13.01,2013-09-19 22:49:00,
2013-09-19 18:54:00,67.5,25.0,17.72,ENE,74,0.0,0.0,20,0.00,,---,0.00,VWS V13.01,2013-09-19 22:54:00,
2013-09-19 18:59:00,67.3,27.2,17.72,ENE,74,0.0,0.0,22,0.00,,---,0.00,VWS V13.01,2013-09-19 22:59:00,
2013-09-19 19:04:00,67.1,28.1,17.72,ENE,74,0.0,0.0,23,0.00,,---,0.00,VWS V13.01,2013-09-19 23:04:00,
2013-09-19 19:09:00,66.7,27.8,17.72,ENE,74,0.0,0.0,23,0.00,,---,0.00,VWS V13.01,2013-09-19 23:09:00,
2013-09-19 19:14:00,66.4,27.5,17.72,ENE,74,0.0,0.0,23,0.00,,---,0.00,VWS V13.01,2013-09-19 23:14:00,
2013-09-19 19:19:00,66.2,27.3,17.72,ENE,74,0.0,0.0,23,0.00,,---,0.00,VWS V13.01,2013-09-19 23:19:00,
2013-09-19 19:24:00,66.0,28.2,17.72,ENE,74,0.0,0.0,24,0.00,,---,0.00,VWS V13.01,2013-09-19 23:24:00,
2013-09-19 19:29:00,65.7,27.9,17.72,ENE,74,0.0,0.0,24,0.00,,---,0.00,VWS V13.01,2013-09-19 23:29:00,
2013-09-19 19:34:00,65.5,28.8,17.72,ENE,74,0.0,0.0,25,0.00,,---,0.00,VWS V13.01,2013-09-19 23:34:00,
2013-09-19 19:39:00,65.1,27.5,17.72,ENE,74,0.0,0.0,24,0.00,,---,0.00,VWS V13.01,2013-09-19 23:39:00,
2013-09-19 19:44:00,64.8,27.2,17.72,ENE,74,0.0,0.0,24,0.00,,---,0.00,VWS V13.01,2013-09-19 23:44:00,
2013-09-19 19:49:00,64.4,27.8,17.72,ENE,74,0.0,0.0,25,0.00,,---,0.00,VWS V13.01,2013-09-19 23:49:00,
2013-09-19 19:54:00,64.0,27.5,17.72,ENE,74,0.0,0.0,25,0.00,,---,0.00,VWS V13.01,2013-09-19 23:54:00,
2013-09-19 19:59:00,63.9,28.3,17.72,ENE,74,0.0,0.0,26,0.00,,---,0.00,VWS V13.01,2013-09-19 23:59:00,
2013-09-19 20:04:00,63.5,28.0,17.72,ENE,74,0.0,0.0,26,0.00,,---,0.00,VWS V13.01,2013-09-20 00:04:00,
2013-09-19 20:09:00,63.3,28.8,17.72,ENE,74,0.0,0.0,27,0.00,,---,0.00,VWS V13.01,2013-09-20 00:09:00,
2013-09-19 20:14:00,63.1,29.5,17.72,ENE,74,0.0,0.0,28,0.00,,---,0.00,VWS V13.01,2013-09-20 00:14:00,
2013-09-19 20:19:00,63.0,29.4,17.72,ENE,74,0.0,0.0,28,0.00,,---,0.00,VWS V13.01,2013-09-20 00:19:00,
2013-09-19 20:24:00,62.8,29.2,17.72,ENE,73,0.0,0.0,28,0.00,,---,0.00,VWS V13.01,2013-09-20 00:24:00,
2013-09-19 20:29:00,62.6,29.9,17.72,ENE,74,0.0,0.0,29,0.00,,---,0.00,VWS V13.01,2013-09-20 00:29:00,
2013-09-19 20:34:00,62.4,30.6,17.72,ENE,74,0.0,0.0,30,0.00,,---,0.00,VWS V13.01,2013-09-20 00:34:00,
2013-09-19 20:39:00,62.2,31.2,17.72,ENE,74,0.0,0.0,31,0.00,,---,0.00,VWS V13.01,2013-09-20 00:39:00,
2013-09-19 20:44:00,62.1,31.1,17.72,ENE,74,0.0,0.0,31,0.00,,---,0.00,VWS V13.01,2013-09-20 00:44:00,
2013-09-19 20:49:00,62.1,31.9,17.72,ENE,74,0.0,0.0,32,0.00,,---,0.00,VWS V13.01,2013-09-20 00:49:00,
2013-09-19 20:54:00,61.9,31.7,17.72,ENE,74,0.0,0.0,32,0.00,,---,0.00,VWS V13.01,2013-09-20 00:54:00,
2013-09-19 20:59:00,61.7,32.3,17.72,ENE,74,0.0,0.0,33,0.00,,---,0.00,VWS V13.01,2013-09-20 00:59:00,
2013-09-19 21:04:00,61.5,32.9,17.72,ENE,74,0.0,0.0,34,0.00,,---,0.00,VWS V13.01,2013-09-20 01:04:00,
2013-09-19 21:09:00,61.5,32.9,17.72,ENE,74,0.0,0.0,34,0.00,,---,0.00,VWS V13.01,2013-09-20 01:09:00,
2013-09-19 21:14:00,61.3,32.8,17.72,ENE,74,0.0,0.0,34,0.00,,---,0.00,VWS V13.01,2013-09-20 01:14:00,
2013-09-19 21:19:00,61.2,32.6,17.72,ENE,74,0.0,0.0,34,0.00,,---,0.00,VWS V13.01,2013-09-20 01:19:00,
2013-09-19 21:24:00,61.2,32.6,17.72,ENE,74,0.0,0.0,34,0.00,,---,0.00,VWS V13.01,2013-09-20 01:24:00,
2013-09-19 21:29:00,61.0,32.4,17.72,ENE,74,0.0,0.0,34,0.00,,---,0.00,VWS V13.01,2013-09-20 01:29:00,
2013-09-19 21:34:00,60.8,32.3,17.72,ENE,74,0.0,0.0,34,0.00,,---,0.00,VWS V13.01,2013-09-20 01:34:00,
2013-09-19 21:39:00,60.8,32.3,17.72,ENE,74,0.0,0.0,34,0.00,,---,0.00,VWS V13.01,2013-09-20 01:39:00,
2013-09-19 21:44:00,60.6,32.8,17.72,ENE,74,0.0,0.0,35,0.00,,---,0.00,VWS V13.01,2013-09-20 01:44:00,
2013-09-19 21:49:00,60.4,32.7,17.72,ENE,74,0.0,0.0,35,0.00,,---,0.00,VWS V13.01,2013-09-20 01:49:00,
2013-09-19 21:54:00,60.4,32.7,17.72,ENE,74,0.0,0.0,35,0.00,,---,0.00,VWS V13.01,2013-09-20 01:54:00,
2013-09-19 21:59:00,60.3,32.5,17.72,ENE,74,0.0,0.0,35,0.00,,---,0.00,VWS V13.01,2013-09-20 01:59:00,
2013-09-19 22:04:00,60.3,32.5,17.72,ENE,74,0.0,0.0,35,0.00,,---,0.00,VWS V13.01,2013-09-20 02:04:00,
2013-09-19 22:09:00,60.1,32.4,17.72,ENE,74,0.0,0.0,35,0.00,,---,0.00,VWS V13.01,2013-09-20 02:09:00,
2013-09-19 22:14:00,60.1,33.1,17.72,ENE,74,0.0,0.0,36,0.00,,---,0.00,VWS V13.01,2013-09-20 02:14:00,
2013-09-19 22:19:00,59.9,32.9,17.72,ENE,74,0.0,0.0,36,0.00,,---,0.00,VWS V13.01,2013-09-20 02:19:00,
2013-09-19 22:24:00,59.9,32.9,17.72,ENE,74,0.0,0.0,36,0.00,,---,0.00,VWS V13.01,2013-09-20 02:24:00,
2013-09-19 22:29:00,59.9,32.9,17.72,ENE,74,0.0,0.0,36,0.00,,---,0.00,VWS V13.01,2013-09-20 02:29:00,
2013-09-19 22:34:00,59.9,32.9,17.72,ENE,74,0.0,0.0,36,0.00,,---,0.00,VWS V13.01,2013-09-20 02:34:00,
2013-09-19 22:39:00,59.7,32.7,17.72,ENE,74,0.0,0.0,36,0.00,,---,0.00,VWS V13.01,2013-09-20 02:39:00,
2013-09-19 22:44:00,59.7,33.4,17.72,ENE,74,0.0,0.0,37,0.00,,---,0.00,VWS V13.01,2013-09-20 02:44:00,
2013-09-19 22:49:00,59.7,33.4,17.72,ENE,74,0.0,0.0,37,0.00,,---,0.00,VWS V13.01,2013-09-20 02:49:00,
2013-09-19 22:54:00,59.5,33.3,17.72,ENE,74,0.0,0.0,37,0.00,,---,0.00,VWS V13.01,2013-09-20 02:54:00,
2013-09-19 22:59:00,59.5,33.3,17.72,ENE,74,0.0,0.0,37,0.00,,---,0.00,VWS V13.01,2013-09-20 02:59:00,
2013-09-19 23:04:00,59.5,33.3,17.72,ENE,74,0.0,0.0,37,0.00,,---,0.00,VWS V13.01,2013-09-20 03:04:00,
2013-09-19 23:09:00,59.4,33.8,17.72,ENE,74,0.0,0.0,38,0.00,,---,0.00,VWS V13.01,2013-09-20 03:09:00,
2013-09-19 23:14:00,59.4,33.8,17.72,ENE,74,0.0,0.0,38,0.00,,---,0.00,VWS V13.01,2013-09-20 03:14:00,
2013-09-19 23:19:00,59.4,33.8,17.72,ENE,74,0.0,0.0,38,0.00,,---,0.00,VWS V13.01,2013-09-20 03:19:00,
2013-09-19 23:24:00,59.4,33.8,17.72,ENE,74,0.0,0.0,38,0.00,,---,0.00,VWS V13.01,2013-09-20 03:24:00,
2013-09-19 23:29:00,59.4,34.4,17.72,ENE,74,0.0,0.0,39,0.00,,---,0.00,VWS V13.01,2013-09-20 03:29:00,
2013-09-19 23:34:00,59.4,34.4,17.72,ENE,74,0.0,0.0,39,0.00,,---,0.00,VWS V13.01,2013-09-20 03:34:00,
2013-09-19 23:39:00,59.4,34.4,17.72,ENE,74,0.0,0.0,39,0.00,,---,0.00,VWS V13.01,2013-09-20 03:39:00,
2013-09-19 23:44:00,59.4,34.4,17.72,ENE,74,0.0,0.0,39,0.00,,---,0.00,VWS V13.01,2013-09-20 03:44:00,
2013-09-19 23:49:00,59.4,34.4,17.72,ENE,74,0.0,0.0,39,0.00,,---,0.00,VWS V13.01,2013-09-20 03:49:00,
2013-09-19 23:54:00,59.4,35.1,17.72,ENE,74,0.0,0.0,40,0.00,,---,0.00,VWS V13.01,2013-09-20 03:54:00,
2013-09-19 23:59:00,59.4,35.1,17.72,ENE,74,0.0,0.0,40,0.00,,---,0.00,VWS V13.01,2013-09-20 03:59:00,